Regional Weather Roundup
Issued by NWS

Home | Current Version | Previous Version | Graphics & Text | Print | Product List | Glossary On
Versions: 1 2 3 4 5 6 7 8 9 10 11 12 13 14 15 16 17 18 19 20 21 22 23 24 25 26 27 28 29 30 31 32 33 34 35 36 37 38 39 40 41 42 43 44 45 46 47 48 49 50
000
ASUS43 KDTX 281210
RWRMI
MICHIGAN HOURLY REGIONAL WEATHER ROUNDUP
NATIONAL WEATHER SERVICE DETROIT/PONTIAC MI
800 AM EDT TUE APR 28 2015

NOTE: "FAIR" INDICATES FEW OR NO CLOUDS BELOW 12,000 FEET WITH NO
SIGNIFICANT WEATHER AND/OR OBSTRUCTION TO VISIBILITY.

MIZ047>049-052>055-059>063-066>070-074>076-081>083-281300-
SOUTHEAST LOWER MICHIGAN

CITY           SKY/WX    TMP DP  RH WIND       PRES   REMARKS
ADRIAN         SUNNY     37  33  85 NW3       30.16R
6HR MIN TEMP:  31; 6HR MAX TEMP:  37;

ALMA           SUNNY     37  36  96 CALM      30.16R
ANN ARBOR      SUNNY     36  33  89 CALM      30.14R
BAD AXE        SUNNY     36  35  96 CALM      30.14S
CARO           SUNNY     34  32  92 CALM      30.14R
DETROIT CITY   SUNNY     42  33  70 NW5       30.14R
6HR MIN TEMP:  34; 6HR MAX TEMP:  42;

DETROIT        MOSUNNY   43  34  70 W3        30.15R
6HR MIN TEMP:  35; 6HR MAX TEMP:  43;

FLINT          SUNNY     39  33  79 W3        30.15R
6HR MIN TEMP:  30; 6HR MAX TEMP:  44;

GROSSE ILE     SUNNY     41  36  81 NW5       30.13R
HILLSDALE      SUNNY     39  39  99 CALM      30.14R
6HR MIN TEMP:  31; 6HR MAX TEMP:  39;

HOWELL         SUNNY     37  36  94 W3        30.15R
6HR MIN TEMP:  30; 6HR MAX TEMP:  39;


CITY           SKY/WX    TMP DP  RH WIND       PRES   REMARKS
JACKSON        SUNNY     36  33  89 CALM      30.15R
6HR MIN TEMP:  30; 6HR MAX TEMP:  36;

LAMBERTVILLE   SUNNY     37  36  93 CALM      30.15R
LANSING        SUNNY     38  33  82 CALM      30.16R
6HR MIN TEMP:  33; 6HR MAX TEMP:  42;

LAPEER         FAIR      33  32  98 CALM      30.14R
MASON          SUNNY     34  32  94 CALM      30.15R
MONROE         SUNNY     37  36  93 CALM      30.13R
MT. CLEMENS    MOSUNNY   41  35  79 NW8       30.10R
6HR MIN TEMP:  34; 6HR MAX TEMP:  41;

PONTIAC        MOSUNNY   40  35  83 CALM      30.13R
6HR MIN TEMP:  32; 6HR MAX TEMP:  40;

PORT HOPE        N/A     40  36  86 CALM      30.12R
6HR MIN TEMP:  33; 6HR MAX TEMP:  43;

PORT HURON     SUNNY     36  36 100 CALM      30.13R
TRI CITIES     SUNNY     43  36  76 NW6       30.16R
6HR MIN TEMP:  37; 6HR MAX TEMP:  43;

MIDLAND        FAIR      37  36  93 CALM      30.15R
TROY           SUNNY     43  33  68 N6        30.15R
SAGINAW HB     SUNNY     41  37  87 W6        30.15R
$$
MIZ043>046-050>051-056>058-064>065-071>073-077>080-281300-
SOUTHWEST LOWER MICHIGAN

CITY           SKY/WX    TMP DP  RH WIND       PRES   REMARKS
BATTLE CREEK   SUNNY     38  34  85 CALM      30.16R
6HR MIN TEMP:  33; 6HR MAX TEMP:  41;

BENTON HARBOR  SUNNY     33  32  96 CALM      30.15R
6HR MIN TEMP:  29; 6HR MAX TEMP:  33;

BIG RAPIDS     SUNNY     35  33  90 CALM      30.14S
6HR MIN TEMP:  31; 6HR MAX TEMP:  37;

COLDWATER      SUNNY     33  33  97 S5        30.15R WCI  29
6HR MIN TEMP:  30; 6HR MAX TEMP:  35;

FREMONT        FAIR      39  35  84 CALM      30.15R
HOLLAND        SUNNY     37  34  89 SE6       30.15R WCI  32
6HR MIN TEMP:  33; 6HR MAX TEMP:  39;

GRAND RAPIDS   MOSUNNY   39  34  82 E5        30.15R
6HR MIN TEMP:  36; 6HR MAX TEMP:  40;

IONIA          FAIR      39  33  79 CALM      30.15R
KALAMAZOO      MOSUNNY   37  34  89 CALM      30.16R
6HR MIN TEMP:  33; 6HR MAX TEMP:  38;

LUDINGTON      MOSUNNY   33  31  93 CALM      30.16S
6HR MIN TEMP:  31; 6HR MAX TEMP:  38;

MARSHALL       SUNNY     33  32  96 CALM      30.15R
MOUNT PLEASANT SUNNY     37  36  94 CALM      30.15R
6HR MIN TEMP:  33; 6HR MAX TEMP:  38;

MUSKEGON       SUNNY     42  34  73 CALM      30.15R
6HR MIN TEMP:  35; 6HR MAX TEMP:  44;

SOUTH HAVEN    SUNNY     34  33  94 CALM      30.15S
$$
MIZ016>042-281300-
NORTHERN LOWER MICHIGAN

CITY           SKY/WX    TMP DP  RH WIND       PRES   REMARKS
BEAVER ISLAND  CLOUDY    39  33  80 CALM      30.18R
6HR MIN TEMP:  38; 6HR MAX TEMP:  41;

BELLAIRE       CLOUDY    40  36  84 CALM      30.17S
6HR MIN TEMP:  38; 6HR MAX TEMP:  45;

CADILLAC       SUNNY     33  31  92 CALM      30.13S
CHARLEVOIX     CLOUDY    38  35  89 CALM      30.19S
6HR MIN TEMP:  37; 6HR MAX TEMP:  40;

FRANKFORT      SUNNY     36  31  81 CALM      30.16S
GAYLORD        CLOUDY    41  35  79 NE5       30.14R
6HR MIN TEMP:  40; 6HR MAX TEMP:  43;

GRAYLING       SUNNY     38  32  81 CALM      30.15S
6HR MIN TEMP:  30; 6HR MAX TEMP:  43;

HARBOR SPRINGS CLOUDY    37  34  89 CALM      30.16S
HOUGHTON LAKE  SUNNY     40  34  79 CALM      30.15R
6HR MIN TEMP:  30; 6HR MAX TEMP:  40;

MANISTEE       CLOUDY    34  30  86 CALM      30.16S
OSCODA         SUNNY     43  36  77 NW6       30.15R
PELLSTON       CLOUDY    42  35  76 CALM      30.17R
6HR MIN TEMP:  41; 6HR MAX TEMP:  44;

ROGERS CITY    CLOUDY    42  35  78 CALM      30.17R
TRAVERSE CITY  MOSUNNY   37  34  89 CALM      30.16R
6HR MIN TEMP:  31; 6HR MAX TEMP:  37;

$$
MIZ007>008-015-281300-
EASTERN UPPER MICHIGAN

CITY           SKY/WX    TMP DP  RH WIND       PRES   REMARKS
KINROSS        PTSUNNY   39  36  87 CALM      30.16R
6HR MIN TEMP:  36; 6HR MAX TEMP:  39;

MACKINAC ISLAN CLOUDY    40  34  80 CALM      30.16S
6HR MIN TEMP:  38; 6HR MAX TEMP:  40;

NEWBERRY       CLOUDY    37  33  85 CALM      30.16S
S. S. MARIE    CLOUDY    42  34  73 CALM      30.16R
6HR MIN TEMP:  40; 6HR MAX TEMP:  43;

MUNISING         N/A     34  30  85 S6        30.17S WCI  29
6HR MIN TEMP:  30; 6HR MAX TEMP:  34;

$$
MIZ004>006-011>014-085-281300-
CENTRAL UPPER MICHIGAN

CITY           SKY/WX    TMP DP  RH WIND       PRES   REMARKS
MANISTIQUE     SUNNY     37  32  81 N3        30.17R
6HR MIN TEMP:  31; 6HR MAX TEMP:  39;

ESCANABA       SUNNY     36  30  80 CALM      30.18S
6HR MIN TEMP:  28; 6HR MAX TEMP:  37;

MENOMINEE      SUNNY     36  30  80 N6        30.18S WCI  31
6HR MIN TEMP:  30; 6HR MAX TEMP:  37;

SAWYER-GWINN   SUNNY     32  28  86 CALM      30.15S
$$
MIZ001>003-009>011-084-281300-
WESTERN UPPER MICHIGAN

CITY           SKY/WX    TMP DP  RH WIND       PRES   REMARKS
IRON MOUNTAIN  SUNNY     34  30  85 CALM      30.17R
6HR MIN TEMP:  27; 6HR MAX TEMP:  35;

HOUGHTON       SUNNY     41  32  70 NW6       30.14R
6HR MIN TEMP:  31; 6HR MAX TEMP:  41;

COPPER HARBOR    N/A     39  31  72 SW5       30.14R
6HR MIN TEMP:  32; 6HR MAX TEMP:  40;

IRONWOOD       SUNNY     34  30  86 CALM      30.14R
6HR MIN TEMP:  30; 6HR MAX TEMP:  36;

$$

ABBREVIATIONS USED IN REMARKS
   TC - TEMPERATURE IN CELSIUS
  WCI - WIND CHILL INDEX
   HX - HEAT INDEX
  VSB - VISIBILITY




USA.gov is the U.S. government's official web portal to all federal, state and local government web resources and services.